Terug naar catalogus

STARLINK-37776

ActiefCommunicatieSSO
NORAD 69343·PAYLOAD·🇺🇸 United States

Gelanceerd Jun 3, 2026 vanaf Vandenberg Space Force Base

Loading…

Volgende Passages (komende 24 uur)

TLE

VersSource: CelesTrak SupGP

Epoch: Sep 14, 2026, 22:59 UTC

1 69343C 26122Q   26257.95812500  .00116780  00000+0  36295-2 0  2576
2 69343  97.2825 286.6709 0000827  94.1648 163.2498 15.33341524    12

Volg STARLINK-37776 in realtime met AllMySat

Download on the App Store